FW8749 Weather Reports


time (UTC)temp
C
wind
direction
speed
KPH
gust
KPH
rain 1hr
cm
rain 24hr
cm
rain mn
cm
humidity
%
barometer
mb
20260504100615 -17 208 0.0 0.0 0.00 0.00 0.00 1014.0
20260504100113 -17 212 0.0 0.0 0.00 0.00 0.00 1013.9
20260504081506 -17 222 0.0 0.0 0.00 0.00 0.00 1014.1
20260504081001 -17 224 0.0 0.0 0.00 0.00 0.00 1014.1
20260504080458 -17 227 0.0 0.0 0.00 0.00 0.00 1014.2
20260504050311 -17 227 0.0 0.0 0.00 0.00 0.00 1014.2
20260504045808 -17 225 0.0 0.0 0.00 0.00 0.00 1014.3
20260504045304 -17 226 0.0 0.0 0.00 0.00 0.00 1014.1
20260504044800 -17 224 0.0 0.0 0.00 0.00 0.00 1014.4
20260504044258 -17 213 0.0 0.0 0.00 0.00 0.00 1014.3
20260504043755 -17 217 0.0 0.0 0.00 0.00 0.00 1014.5
20260504043251 -17 221 0.0 0.0 0.00 0.00 0.00 1014.2
20260504042749 -17 215 0.0 0.0 0.00 0.00 0.00 1014.3
20260504042245 -17 230 0.0 0.0 0.00 0.00 0.00 1014.1
20260504041742 -17 225 0.0 0.0 0.00 0.00 0.00 1013.9
20260504041238 -17 219 0.0 0.0 0.00 0.00 0.00 1014.1
20260504040734 -17 226 0.0 0.0 0.00 0.00 0.00 1013.9
20260504040232 -17 222 0.0 0.0 0.00 0.00 0.00 1013.9
20260504035727 -17 220 0.0 0.0 0.00 0.00 0.00 1014.0
20260504035225 -17 219 0.0 0.0 0.00 0.00 0.00 1014.0
20260504034722 -17 216 0.0 0.0 0.00 0.00 0.00 1014.0
20260504034219 -17 231 0.0 0.0 0.00 0.00 0.00 1013.8
20260504033717 -17 226 0.0 0.0 0.00 0.00 0.00 1013.8
20260504033214 -17 216 0.0 0.0 0.00 0.00 0.00 1013.8
20260504032711 -17 214 0.0 0.0 0.00 0.00 0.00 1013.9
20260504032208 -17 208 0.0 0.0 0.00 0.00 0.00 1013.9
20260504031705 -17 218 0.0 0.0 0.00 0.00 0.00 1013.7
20260504031202 -17 228 0.0 0.0 0.00 0.00 0.00 1013.6
20260504030658 -17 225 0.0 0.0 0.00 0.00 0.00 1013.7
20260504030155 -17 220 0.0 0.0 0.00 0.00 0.00 1013.5
20260504025652 -17 210 0.0 0.0 0.00 0.00 0.00 1013.6
20260504025148 -17 216 0.0 0.0 0.00 0.00 0.00 1013.8
20260504024646 -17 209 0.0 0.0 0.00 0.00 0.00 1013.6
20260504024142 -17 217 0.0 0.0 0.00 0.00 0.00 1013.6
20260504023639 -17 224 0.0 0.0 0.00 0.00 0.00 1013.7
20260504023135 -17 224 0.0 0.0 0.00 0.00 0.00 1013.6
20260504022631 -17 224 0.0 0.0 0.00 0.00 0.00 1013.8
20260504022127 -17 227 0.0 0.0 0.00 0.00 0.00 1013.6
20260504021626 -17 207 0.0 0.0 0.00 0.00 0.00 1013.6
20260504021122 -17 216 0.0 0.0 0.00 0.00 0.00 1013.7
20260504020619 -17 228 0.0 0.0 0.00 0.00 0.00 1013.7
20260504020115 -17 228 0.0 0.0 0.00 0.00 0.00 1013.6
20260504015612 -17 228 0.0 0.0 0.00 0.00 0.00 1013.5
20260504015108 -17 214 0.0 0.0 0.00 0.00 0.00 1013.6
20260504014604 -17 204 1.6 1.6 0.00 0.00 0.00 1013.5
20260504014101 -17 218 0.0 0.0 0.00 0.00 0.00 1013.3
20260504013559 -17 223 0.0 0.0 0.00 0.00 0.00 1013.3
20260504013055 -17 235 0.0 0.0 0.00 0.00 0.00 1013.4
20260504012553 -17 226 0.0 0.0 0.00 0.00 0.00 1013.4
20260504012051 -17 223 0.0 0.0 0.00 0.00 0.00 1013.2
20260504011547 -17 214 0.0 0.0 0.00 0.00 0.00 1013.3
20260504011043 -17 217 0.0 0.0 0.00 0.00 0.00 1013.4
20260504010539 -17 212 0.0 0.0 0.00 0.00 0.00 1013.3
20260504010036 -17 214 0.0 0.0 0.00 0.00 0.00 1013.1
20260504005532 -17 217 0.0 0.0 0.00 0.00 0.00 1013.1
20260504005030 -17 217 0.0 0.0 0.00 0.00 0.00 1013.2
20260504004528 -17 218 0.0 0.0 0.00 0.00 0.00 1013.0
20260504004024 -17 212 0.0 0.0 0.00 0.00 0.00 1013.1
20260504003520 -17 206 1.6 1.6 0.00 0.00 0.00 1013.0
20260504003017 -17 211 1.6 1.6 0.00 0.00 0.00 1012.8
20260504002514 -17 204 1.6 1.6 0.00 0.00 0.00 1012.7
20260504002012 -17 230 0.0 0.0 0.00 0.00 0.00 1012.7
20260504001509 -17 222 0.0 1.6 0.00 0.00 0.00 1012.7
20260504001005 -17 224 0.0 0.0 0.00 0.00 0.00 1012.6
20260504000503 -17 228 0.0 0.0 0.00 0.00 0.00 1012.5
20260504000000 -17 220 0.0 0.0 0.00 0.00 0.00 1012.4
20260503235458 -17 225 0.0 0.0 0.00 0.00 0.00 1012.4
20260503234954 -17 214 0.0 0.0 0.00 0.00 0.00 1012.6
20260503234452 -17 215 0.0 0.0 0.00 0.00 0.00 1012.3
20260503233950 -17 208 0.0 0.0 0.00 0.00 0.00 1012.6
20260503233446 -17 217 0.0 0.0 0.00 0.00 0.00 1012.3
20260503232943 -17 220 0.0 0.0 0.00 0.00 0.00 1012.3
20260503232440 -17 214 0.0 0.0 0.00 0.00 0.00 1012.3
20260503231938 -17 221 0.0 0.0 0.00 0.00 0.00 1012.5
20260503231435 -17 246 1.6 3.2 0.00 0.00 0.00 1012.3
20260503230931 -17 229 0.0 0.0 0.00 0.00 0.00 1012.4
20260503230428 -17 233 1.6 3.2 0.00 0.00 0.00 1012.5
20260503225925 -17 282 3.2 3.2 0.00 0.00 0.00 1012.4
20260503225422 -17 259 1.6 1.6 0.00 0.00 0.00 1012.2
20260503224918 -17 178 0.0 0.0 0.00 0.00 0.00 1012.2
20260503224415 -17 204 4.8 4.8 0.00 0.00 0.00 1012.3
20260503223912 -17 195 0.0 1.6 0.00 0.00 0.00 1012.1
20260503223410 -17 304 1.6 1.6 0.00 0.00 0.00 1012.1
20260503222910 -17 335 6.4 8.0 0.00 0.00 0.00 1012.3
20260503222409 -17 261 0.0 0.0 0.00 0.00 0.00 1012.2
20260503221907 -17 328 4.8 8.0 0.00 0.00 0.00 1012.2
20260503221406 -17 208 1.6 3.2 0.00 0.00 0.00 1012.3
20260503220901 -17 215 1.6 1.6 0.00 0.00 0.00 1012.6
20260503220358 -17 237 1.6 3.2 0.00 0.00 0.00 1012.6
20260503215855 -17 244 0.0 1.6 0.00 0.00 0.00 1012.3
20260503215352 -17 315 6.4 16.1 0.00 0.00 0.00 1012.3
20260503214849 -17 196 4.8 4.8 0.00 0.00 0.00 1012.4
20260503214347 -17 25 1.6 1.6 0.00 0.00 0.00 1012.5
20260503213844 -17 213 3.2 4.8 0.00 0.00 0.00 1012.0
20260503213342 -17 29 6.4 9.7 0.00 0.00 0.00 1012.4
20260503212838 -17 211 1.6 3.2 0.00 0.00 0.00 1012.3
20260503212336 -17 219 3.2 4.8 0.00 0.00 0.00 1012.2
20260503211833 -17 225 3.2 4.8 0.00 0.00 0.00 1012.1
20260503211330 -17 2 11.3 17.7 0.00 0.00 0.00 1012.4
20260503210825 -17 279 3.2 4.8 0.00 0.00 0.00 1012.2
20260503210323 -17 27 14.5 16.1 0.00 0.00 0.00 1012.2
20260503205818 -17 229 1.6 1.6 0.00 0.00 0.00 1012.3
20260503205314 -17 209 3.2 3.2 0.00 0.00 0.00 1012.4
20260503203135 -17 306 3.2 4.8 0.00 0.00 0.00 1012.5
20260503202632 -17 306 3.2 4.8 0.00 0.00 0.00 1012.5
20260503202131 -17 306 3.2 4.8 0.00 0.00 0.00 1012.5
20260503201628 -17 281 8.0 14.5 0.00 0.00 0.00 1012.8
20260503201125 -17 26 1.6 4.8 0.00 0.00 0.00 1012.8
20260503200621 -17 21 9.7 12.9 0.00 0.00 0.00 1012.8
20260503200118 -17 355 8.0 12.9 0.00 0.00 0.00 1012.8
20260503195615 -17 305 4.8 8.0 0.00 0.00 0.00 1012.8
20260503195112 -17 305 6.4 8.0 0.00 0.00 0.00 1013.2
20260503194609 -17 285 6.4 11.3 0.00 0.00 0.00 1013.1
20260503194104 -17 345 11.3 16.1 0.00 0.00 0.00 1013.2
20260503193601 -17 3 9.7 14.5 0.00 0.00 0.00 1013.2
20260503193056 -17 264 1.6 3.2 0.00 0.00 0.00 1013.1
20260503192552 -17 336 3.2 4.8 0.00 0.00 0.00 1013.4
20260503192048 -17 300 1.6 3.2 0.00 0.00 0.00 1013.2
20260503191545 -17 215 6.4 8.0 0.00 0.00 0.00 1013.6
20260503191042 -17 193 6.4 11.3 0.00 0.00 0.00 1013.6
20260503190539 -17 311 4.8 9.7 0.00 0.00 0.00 1013.4
20260503190036 -17 313 3.2 4.8 0.00 0.00 0.00 1013.5
20260503185533 -17 209 6.4 11.3 0.00 0.00 0.00 1013.6
20260503185032 -17 282 8.0 12.9 0.00 0.00 0.00 1013.5
20260503184529 -17 358 16.1 22.5 0.00 0.00 0.00 1013.7
20260503184025 -17 239 0.0 1.6 0.00 0.00 0.00 1013.6
20260503183522 -17 21 8.0 11.3 0.00 0.00 0.00 1013.7
20260503183019 -17 354 12.9 16.1 0.00 0.00 0.00 1013.6
20260503182518 -17 226 6.4 8.0 0.00 0.00 0.00 1013.7
20260503182015 -17 257 9.7 14.5 0.00 0.00 0.00 1013.6
20260503181512 -17 43 4.8 4.8 0.00 0.00 0.00 1013.8
20260503181008 -17 275 4.8 8.0 0.00 0.00 0.00 1013.8
20260503180506 -17 259 4.8 8.0 0.00 0.00 0.00 1013.9
20260503180003 -17 201 9.7 16.1 0.00 0.00 0.00 1013.9
20260503175500 -17 333 8.0 12.9 0.00 0.00 0.00 1014.1
20260503174956 -17 220 1.6 1.6 0.00 0.00 0.00 1014.0
20260503174455 -17 3 6.4 9.7 0.00 0.00 0.00 1014.0
20260503173950 -17 209 3.2 3.2 0.00 0.00 0.00 1014.1
20260503173446 -17 354 11.3 17.7 0.00 0.00 0.00 1014.2
20260503172943 -17 332 14.5 22.5 0.00 0.00 0.00 1014.3
20260503172440 -17 325 6.4 9.7 0.00 0.00 0.00 1014.1
20260503171937 -17 288 9.7 12.9 0.00 0.00 0.00 1014.3
20260503171433 -17 343 1.6 3.2 0.00 0.00 0.00 1014.2
20260503170931 -17 259 1.6 3.2 0.00 0.00 0.00 1014.5
20260503170427 -17 33 4.8 8.0 0.00 0.00 0.00 1014.5
20260503150819 -17 16 14.5 16.1 0.00 0.00 0.00 1014.6
20260503150314 -17 225 8.0 11.3 0.00 0.00 0.00 1014.7
20260503140240 -17 32 8.0 9.7 0.00 0.00 0.00 1014.6
20260503131209 -17 176 11.3 14.5 0.00 0.00 0.00 1014.6
20260503130707 -17 45 8.0 12.9 0.00 0.00 0.00 1014.6
20260503130204 -17 49 4.8 9.7 0.00 0.00 0.00 1014.6
20260503120130 -17 327 6.4 9.7 0.00 0.00 0.00 1014.0
20260503110557 -17 39 6.4 8.0 0.00 0.00 0.00 1013.5